Time,TemperatureF,DewpointF,PressureIn,WindDirection,WindDirectionDegrees,WindSpeedMPH,WindSpeedGustMPH,Humidity,HourlyPrecipIn,Conditions,Clouds,dailyrainin,SolarRadiationWatts/m^2,SoftwareType,DateUTC
2013-04-20 00:01:00,40.0,30.6,29.84,WSW,249,7.0,15.0,69,0.00,-RA,,0.00,0.0,WeatherDisplay:10.37,2013-04-20 04:01:00,
2013-04-20 00:06:00,40.0,30.6,29.85,West,265,9.4,13.8,69,0.00,-RA,,0.00,0.0,WeatherDisplay:10.37,2013-04-20 04:06:00,
2013-04-20 00:11:00,40.0,31.0,29.85,WSW,251,6.3,10.4,70,0.00,-RA,,0.00,0.0,WeatherDisplay:10.37,2013-04-20 04:11:00,
2013-04-20 00:16:00,39.7,31.8,29.85,West,260,4.8,8.0,73,0.00,-RA,,0.00,0.0,WeatherDisplay:10.37,2013-04-20 04:16:00,
2013-04-20 00:21:00,39.3,32.0,29.85,WNW,291,10.1,12.7,75,0.00,-RA,,0.00,0.0,WeatherDisplay:10.37,2013-04-20 04:21:00,
2013-04-20 00:26:00,38.3,31.7,29.85,WSW,257,7.5,15.0,77,0.00,-RA,,0.00,0.0,WeatherDisplay:10.37,2013-04-20 04:26:00,
2013-04-20 00:31:00,37.1,31.5,29.85,WNW,287,7.6,11.5,80,0.00,-RA,,0.00,0.0,WeatherDisplay:10.37,2013-04-20 04:31:00,
2013-04-20 00:36:00,36.2,31.2,29.85,WSW,244,12.8,24.2,82,0.00,-RA,,0.00,0.0,WeatherDisplay:10.37,2013-04-20 04:36:00,
2013-04-20 00:41:00,36.0,31.3,29.86,WSW,252,8.1,13.0,83,0.00,-RA,,0.00,0.0,WeatherDisplay:10.37,2013-04-20 04:41:00,
2013-04-20 00:46:00,35.9,31.2,29.86,WNW,300,8.5,9.2,83,0.00,-RA,,0.00,0.0,WeatherDisplay:10.37,2013-04-20 04:46:00,
2013-04-20 00:51:00,36.0,31.6,29.86,West,271,9.7,12.7,84,0.00,-RA,,0.00,0.0,WeatherDisplay:10.37,2013-04-20 04:51:00,
2013-04-20 00:56:00,36.1,31.7,29.86,WSW,253,7.9,12.7,84,0.00,-RA,,0.00,0.0,WeatherDisplay:10.37,2013-04-20 04:56:00,
2013-04-20 01:01:00,36.2,31.8,29.86,WSW,237,6.7,11.5,84,0.00,-SN,,0.00,0.0,WeatherDisplay:10.37,2013-04-20 05:01:00,
2013-04-20 01:06:00,36.4,31.7,29.86,WSW,251,9.8,18.4,83,0.00,-SN,,0.00,0.0,WeatherDisplay:10.37,2013-04-20 05:06:00,
2013-04-20 01:11:00,36.5,32.1,29.86,WSW,256,10.1,16.1,84,0.00,-SN,,0.00,0.0,WeatherDisplay:10.37,2013-04-20 05:11:00,
2013-04-20 01:16:00,36.6,31.9,29.86,SW,219,5.6,11.5,83,0.00,-SN,,0.00,0.0,WeatherDisplay:10.37,2013-04-20 05:16:00,
2013-04-20 01:21:00,36.8,32.1,29.86,West,261,9.1,13.8,83,0.00,-SN,,0.00,0.0,WeatherDisplay:10.37,2013-04-20 05:21:00,
2013-04-20 01:26:00,37.1,32.1,29.86,WSW,244,9.4,13.8,82,0.00,-SN,,0.00,0.0,WeatherDisplay:10.37,2013-04-20 05:26:00,
2013-04-20 01:31:00,37.3,31.7,29.87,WSW,246,10.3,16.0,80,0.00,-SN,,0.00,0.0,WeatherDisplay:10.37,2013-04-20 05:31:00,
2013-04-20 01:36:00,37.4,31.8,29.87,SW,233,9.1,16.1,80,0.00,-SN,,0.00,0.0,WeatherDisplay:10.37,2013-04-20 05:36:00,
2013-04-20 01:41:00,37.4,31.8,29.87,WSW,249,8.9,15.0,80,0.00,-SN,,0.00,0.0,WeatherDisplay:10.37,2013-04-20 05:41:00,
2013-04-20 01:46:00,37.3,31.7,29.87,WSW,239,8.9,11.5,80,0.00,-SN,,0.00,0.0,WeatherDisplay:10.37,2013-04-20 05:46:00,
2013-04-20 01:51:00,37.3,31.7,29.87,West,270,10.8,19.6,80,0.00,-SN,,0.00,0.0,WeatherDisplay:10.37,2013-04-20 05:51:00,
2013-04-20 01:56:00,37.3,31.7,29.87,WSW,240,10.6,16.1,80,0.00,-SN,,0.00,0.0,WeatherDisplay:10.37,2013-04-20 05:56:00,
2013-04-20 02:01:00,37.3,31.1,29.87,West,267,13.6,20.7,78,0.00,BKN,,0.00,0.0,WeatherDisplay:10.37,2013-04-20 06:01:00,
2013-04-20 02:06:00,37.3,31.1,29.88,West,281,15.5,20.0,78,0.00,BKN,,0.00,0.0,WeatherDisplay:10.37,2013-04-20 06:06:00,
2013-04-20 02:11:00,37.4,31.2,29.88,SW,232,9.8,18.4,78,0.00,BKN,,0.00,0.0,WeatherDisplay:10.37,2013-04-20 06:11:00,
2013-04-20 02:16:00,37.4,31.2,29.88,WSW,242,14.6,19.0,78,0.00,BKN,,0.00,0.0,WeatherDisplay:10.37,2013-04-20 06:16:00,
2013-04-20 02:21:00,37.5,31.3,29.88,SW,221,11.0,20.7,78,0.00,BKN,,0.00,0.0,WeatherDisplay:10.37,2013-04-20 06:21:00,
2013-04-20 02:26:00,37.5,31.3,29.88,West,281,12.6,19.0,78,0.00,BKN,,0.00,0.0,WeatherDisplay:10.37,2013-04-20 06:26:00,
2013-04-20 02:31:00,37.5,30.9,29.88,WSW,242,13.3,19.6,77,0.00,BKN,,0.00,0.0,WeatherDisplay:10.37,2013-04-20 06:31:00,
2013-04-20 02:36:00,37.5,30.6,29.88,West,273,11.0,15.0,76,0.00,BKN,,0.00,0.0,WeatherDisplay:10.37,2013-04-20 06:36:00,
2013-04-20 02:41:00,37.4,30.8,29.88,SW,219,14.1,18.4,77,0.00,BKN,,0.00,0.0,WeatherDisplay:10.37,2013-04-20 06:41:00,
2013-04-20 02:46:00,37.4,31.2,29.88,SW,234,16.6,20.7,78,0.00,BKN,,0.00,0.0,WeatherDisplay:10.37,2013-04-20 06:46:00,
2013-04-20 02:51:00,37.3,31.1,29.88,West,269,8.7,13.8,78,0.00,BKN,,0.00,0.0,WeatherDisplay:10.37,2013-04-20 06:51:00,
2013-04-20 02:56:00,37.0,30.8,29.88,SW,228,10.9,15.0,78,0.00,BKN,,0.00,0.0,WeatherDisplay:10.37,2013-04-20 06:56:00,
2013-04-20 03:01:00,36.8,30.6,29.88,WSW,240,9.0,17.3,78,0.00,BKN,,0.00,0.0,WeatherDisplay:10.37,2013-04-20 07:01:00,
2013-04-20 03:06:00,36.6,30.7,29.89,NW,304,9.6,15.0,79,0.00,BKN,,0.00,0.0,WeatherDisplay:10.37,2013-04-20 07:06:00,
2013-04-20 03:11:00,36.5,30.9,29.89,WSW,252,8.1,14.0,80,0.00,BKN,,0.00,0.0,WeatherDisplay:10.37,2013-04-20 07:11:00,
2013-04-20 03:16:00,36.4,30.8,29.88,WSW,257,6.2,8.1,80,0.00,BKN,,0.00,0.0,WeatherDisplay:10.37,2013-04-20 07:16:00,
2013-04-20 03:21:00,36.4,30.5,29.89,WSW,240,11.0,12.7,79,0.00,BKN,,0.00,0.0,WeatherDisplay:10.37,2013-04-20 07:21:00,
2013-04-20 03:26:00,36.5,30.6,29.89,WSW,246,11.1,19.6,79,0.00,BKN,,0.00,0.0,WeatherDisplay:10.37,2013-04-20 07:26:00,
2013-04-20 03:31:00,36.6,30.4,29.89,WSW,247,9.9,15.0,78,0.00,BKN,,0.00,0.0,WeatherDisplay:10.37,2013-04-20 07:31:00,
2013-04-20 03:36:00,36.7,30.5,29.89,WSW,250,10.2,16.1,78,0.00,BKN,,0.00,0.0,WeatherDisplay:10.37,2013-04-20 07:36:00,
2013-04-20 03:41:00,36.8,30.3,29.89,WNW,284,6.9,10.4,77,0.00,BKN,,0.00,0.0,WeatherDisplay:10.37,2013-04-20 07:41:00,
2013-04-20 03:46:00,36.8,30.3,29.90,WSW,256,8.0,12.0,77,0.00,BKN,,0.00,0.0,WeatherDisplay:10.37,2013-04-20 07:46:00,
2013-04-20 03:51:00,36.9,30.4,29.90,WSW,248,10.7,20.0,77,0.00,BKN,,0.00,0.0,WeatherDisplay:10.37,2013-04-20 07:51:00,
2013-04-20 03:56:00,37.0,29.8,29.90,West,271,13.4,27.6,75,0.00,BKN,,0.00,0.0,WeatherDisplay:10.37,2013-04-20 07:56:00,
2013-04-20 04:01:00,37.0,29.8,29.90,WSW,241,15.0,21.9,75,0.00,BKN,,0.00,0.0,WeatherDisplay:10.37,2013-04-20 08:01:00,
2013-04-20 04:06:00,37.1,29.9,29.90,WSW,253,7.2,15.0,75,0.00,BKN,,0.00,0.0,WeatherDisplay:10.37,2013-04-20 08:06:00,
2013-04-20 04:11:00,37.1,29.9,29.90,WSW,254,9.4,15.0,75,0.00,BKN,,0.00,0.0,WeatherDisplay:10.37,2013-04-20 08:11:00,
2013-04-20 04:16:00,37.1,29.6,29.91,WNW,293,8.3,15.0,74,0.00,BKN,,0.00,0.0,WeatherDisplay:10.37,2013-04-20 08:16:00,
2013-04-20 04:21:00,37.1,29.6,29.91,WSW,252,10.3,17.3,74,0.00,BKN,,0.00,0.0,WeatherDisplay:10.37,2013-04-20 08:21:00,
2013-04-20 04:26:00,37.0,29.5,29.91,WSW,258,10.5,17.0,74,0.01,RA,,0.01,0.0,WeatherDisplay:10.37,2013-04-20 08:26:00,
2013-04-20 04:31:00,37.0,29.8,29.91,WSW,249,8.0,11.5,75,0.01,RA,,0.01,0.0,WeatherDisplay:10.37,2013-04-20 08:31:00,
2013-04-20 04:36:00,37.0,29.8,29.91,West,279,8.2,18.4,75,0.01,BKN,,0.01,0.0,WeatherDisplay:10.37,2013-04-20 08:36:00,
2013-04-20 04:41:00,37.0,29.8,29.92,West,268,12.8,19.6,75,0.01,BKN,,0.01,0.0,WeatherDisplay:10.37,2013-04-20 08:41:00,
2013-04-20 04:46:00,37.0,30.1,29.92,WSW,238,11.3,18.4,76,0.01,BKN,,0.01,0.0,WeatherDisplay:10.37,2013-04-20 08:46:00,
2013-04-20 04:51:00,37.1,30.2,29.92,WSW,246,8.9,15.0,76,0.01,BKN,,0.01,0.0,WeatherDisplay:10.37,2013-04-20 08:51:00,
2013-04-20 04:56:00,37.1,30.2,29.92,WNW,296,8.1,11.5,76,0.01,BKN,,0.01,0.0,WeatherDisplay:10.37,2013-04-20 08:56:00,
2013-04-20 05:01:00,37.1,30.6,29.92,West,279,6.4,6.9,77,0.01,OVC,,0.01,0.0,WeatherDisplay:10.37,2013-04-20 09:01:00,
2013-04-20 05:06:00,37.1,30.6,29.92,WSW,257,5.5,9.0,77,0.01,OVC,,0.01,0.0,WeatherDisplay:10.37,2013-04-20 09:06:00,
2013-04-20 05:11:00,37.1,30.2,29.93,SW,223,11.6,15.0,76,0.01,OVC,,0.01,0.0,WeatherDisplay:10.37,2013-04-20 09:11:00,
2013-04-20 05:16:00,37.1,29.9,29.93,WSW,254,10.3,16.1,75,0.01,OVC,,0.01,0.0,WeatherDisplay:10.37,2013-04-20 09:16:00,
2013-04-20 05:21:00,37.1,29.9,29.93,WSW,252,7.9,11.5,75,0.01,OVC,,0.01,0.0,WeatherDisplay:10.37,2013-04-20 09:21:00,
2013-04-20 05:26:00,37.1,30.2,29.94,WSW,243,8.3,12.7,76,0.00,OVC,,0.01,0.0,WeatherDisplay:10.37,2013-04-20 09:26:00,
2013-04-20 05:31:00,37.1,29.9,29.94,WSW,244,6.9,11.5,75,0.00,OVC,,0.01,0.0,WeatherDisplay:10.37,2013-04-20 09:31:00,
2013-04-20 05:36:00,37.1,29.9,29.94,WSW,242,7.8,18.4,75,0.00,OVC,,0.01,0.0,WeatherDisplay:10.37,2013-04-20 09:36:00,
2013-04-20 05:41:00,37.1,29.9,29.94,West,268,5.8,10.0,75,0.00,OVC,,0.01,0.0,WeatherDisplay:10.37,2013-04-20 09:41:00,
2013-04-20 05:46:00,37.0,29.1,29.94,West,259,5.8,12.7,73,0.00,OVC,,0.01,0.0,WeatherDisplay:10.37,2013-04-20 09:46:00,
2013-04-20 05:51:00,36.8,28.3,29.95,WSW,247,9.9,18.4,71,0.00,OVC,,0.01,0.0,WeatherDisplay:10.37,2013-04-20 09:51:00,
2013-04-20 05:56:00,36.7,28.2,29.94,WSW,250,9.9,15.0,71,0.00,OVC,,0.01,0.0,WeatherDisplay:10.37,2013-04-20 09:56:00,
2013-04-20 06:01:00,36.5,28.3,29.95,WSW,244,11.0,16.1,72,0.00,OVC,,0.01,0.0,WeatherDisplay:10.37,2013-04-20 10:01:00,
2013-04-20 06:06:00,36.3,28.5,29.95,WSW,257,10.2,12.7,73,0.00,OVC,,0.01,0.0,WeatherDisplay:10.37,2013-04-20 10:06:00,
2013-04-20 06:11:00,36.2,28.0,29.95,West,267,11.4,16.1,72,0.00,OVC,,0.01,0.0,WeatherDisplay:10.37,2013-04-20 10:11:00,
2013-04-20 06:16:00,36.1,28.3,29.96,WSW,252,8.4,11.5,73,0.00,OVC,,0.01,0.0,WeatherDisplay:10.37,2013-04-20 10:16:00,
2013-04-20 06:21:00,36.0,28.2,29.96,WSW,257,5.7,13.8,73,0.00,OVC,,0.01,0.0,WeatherDisplay:10.37,2013-04-20 10:21:00,
2013-04-20 06:26:00,36.0,28.2,29.96,WSW,254,6.0,11.5,73,0.00,OVC,,0.01,0.0,WeatherDisplay:10.37,2013-04-20 10:26:00,
2013-04-20 06:31:00,35.9,28.4,29.96,WNW,288,7.0,11.5,74,0.00,OVC,,0.01,0.0,WeatherDisplay:10.37,2013-04-20 10:31:00,
2013-04-20 06:36:00,35.9,28.4,29.97,WNW,294,7.6,11.5,74,0.00,OVC,,0.01,0.0,WeatherDisplay:10.37,2013-04-20 10:36:00,
2013-04-20 06:41:00,35.8,28.3,29.97,West,259,8.3,13.8,74,0.00,OVC,,0.01,0.0,WeatherDisplay:10.37,2013-04-20 10:41:00,
2013-04-20 06:46:00,35.8,28.3,29.97,West,263,6.8,10.4,74,0.01,RA,,0.02,5.0,WeatherDisplay:10.37,2013-04-20 10:46:00,
2013-04-20 06:51:00,35.9,28.7,29.98,WSW,241,4.4,11.5,75,0.01,RA,,0.02,5.0,WeatherDisplay:10.37,2013-04-20 10:51:00,
2013-04-20 06:56:00,35.9,28.7,29.98,WNW,291,5.0,9.2,75,0.01,OVC,,0.02,7.0,WeatherDisplay:10.37,2013-04-20 10:56:00,
2013-04-20 07:01:00,36.0,28.5,29.98,West,259,10.0,15.0,74,0.01,OVC,,0.02,11.0,WeatherDisplay:10.37,2013-04-20 11:01:00,
2013-04-20 07:06:00,36.1,28.6,29.99,West,278,4.4,9.2,74,0.01,OVC,,0.02,12.0,WeatherDisplay:10.37,2013-04-20 11:06:00,
2013-04-20 07:11:00,36.1,28.3,29.99,WSW,253,8.9,16.1,73,0.01,OVC,,0.02,16.0,WeatherDisplay:10.37,2013-04-20 11:11:00,
2013-04-20 07:16:00,36.1,28.6,29.99,SW,218,6.5,11.5,74,0.01,OVC,,0.02,37.0,WeatherDisplay:10.37,2013-04-20 11:16:00,
2013-04-20 07:21:00,36.0,28.5,30.00,WSW,250,10.7,12.0,74,0.01,OVC,,0.02,28.0,WeatherDisplay:10.37,2013-04-20 11:21:00,
2013-04-20 07:26:00,36.1,28.9,30.00,WSW,252,11.1,19.6,75,0.01,OVC,,0.02,62.0,WeatherDisplay:10.37,2013-04-20 11:26:00,
2013-04-20 07:31:00,36.1,28.9,30.00,WSW,244,7.5,12.7,75,0.01,OVC,,0.02,32.0,WeatherDisplay:10.37,2013-04-20 11:31:00,
2013-04-20 07:36:00,36.1,28.9,30.01,WSW,242,10.5,18.4,75,0.01,OVC,,0.02,70.0,WeatherDisplay:10.37,2013-04-20 11:36:00,
2013-04-20 07:41:00,36.1,28.9,30.01,SW,223,11.4,15.0,75,0.01,OVC,,0.02,44.0,WeatherDisplay:10.37,2013-04-20 11:41:00,
2013-04-20 07:46:00,36.1,29.3,30.01,West,276,13.2,19.6,76,0.00,OVC,,0.02,25.0,WeatherDisplay:10.37,2013-04-20 11:46:00,
2013-04-20 07:51:00,36.0,29.2,30.02,WNW,295,9.5,16.1,76,0.00,OVC,,0.02,40.0,WeatherDisplay:10.37,2013-04-20 11:51:00,
2013-04-20 07:56:00,36.0,29.2,30.02,West,281,11.1,15.0,76,0.00,OVC,,0.02,79.0,WeatherDisplay:10.37,2013-04-20 11:56:00,
2013-04-20 08:01:00,36.1,29.3,30.02,WSW,240,6.6,11.5,76,0.00,OVC,,0.02,93.0,WeatherDisplay:10.37,2013-04-20 12:01:00,
2013-04-20 08:06:00,36.2,29.7,30.02,SSW,212,8.5,11.5,77,0.00,OVC,,0.02,44.0,WeatherDisplay:10.37,2013-04-20 12:06:00,
2013-04-20 08:11:00,36.1,29.3,30.02,SW,234,11.8,19.6,76,0.00,OVC,,0.02,32.0,WeatherDisplay:10.37,2013-04-20 12:11:00,
2013-04-20 08:16:00,36.0,29.8,30.03,West,275,3.6,11.5,78,0.00,OVC,,0.02,47.0,WeatherDisplay:10.37,2013-04-20 12:16:00,
2013-04-20 08:21:00,36.0,29.8,30.03,WNW,283,8.6,13.8,78,0.00,OVC,,0.02,35.0,WeatherDisplay:10.37,2013-04-20 12:21:00,
2013-04-20 08:26:00,35.9,30.0,30.04,WNW,290,15.0,18.4,79,0.00,OVC,,0.02,16.0,WeatherDisplay:10.37,2013-04-20 12:26:00,
2013-04-20 08:31:00,34.6,30.0,30.05,WNW,282,9.5,15.0,83,0.00,OVC,,0.02,25.0,WeatherDisplay:10.37,2013-04-20 12:31:00,
2013-04-20 08:36:00,33.2,29.5,30.05,West,273,8.4,13.8,86,0.00,OVC,,0.02,105.0,WeatherDisplay:10.37,2013-04-20 12:36:00,
2013-04-20 08:41:00,32.8,29.6,30.05,WNW,289,8.0,11.5,88,0.00,OVC,,0.02,153.0,WeatherDisplay:10.37,2013-04-20 12:41:00,
2013-04-20 08:46:00,33.3,29.8,30.06,WNW,285,6.0,11.0,87,0.00,OVC,,0.02,163.0,WeatherDisplay:10.37,2013-04-20 12:46:00,
2013-04-20 08:51:00,33.7,29.4,30.06,West,271,5.5,11.5,84,0.00,OVC,,0.02,113.0,WeatherDisplay:10.37,2013-04-20 12:51:00,
2013-04-20 08:56:00,34.0,29.1,30.06,WNW,300,6.2,15.0,82,0.00,OVC,,0.02,139.0,WeatherDisplay:10.37,2013-04-20 12:56:00,
2013-04-20 09:01:00,34.5,29.0,30.07,WNW,294,6.8,10.4,80,0.00,OVC,,0.02,185.0,WeatherDisplay:10.37,2013-04-20 13:01:00,
2013-04-20 09:06:00,35.0,29.1,30.07,West,269,7.6,11.5,79,0.00,OVC,,0.02,163.0,WeatherDisplay:10.37,2013-04-20 13:06:00,
2013-04-20 09:11:00,35.3,29.1,30.07,WNW,290,7.0,11.5,78,0.00,OVC,,0.02,167.0,WeatherDisplay:10.37,2013-04-20 13:11:00,
2013-04-20 09:16:00,35.7,29.5,30.08,West,277,5.7,12.7,78,0.00,OVC,,0.02,197.0,WeatherDisplay:10.37,2013-04-20 13:16:00,
2013-04-20 09:21:00,36.1,29.3,30.08,WSW,253,7.1,12.7,76,0.00,OVC,,0.02,216.0,WeatherDisplay:10.37,2013-04-20 13:21:00,
2013-04-20 09:26:00,36.2,29.4,30.08,WNW,297,7.6,9.2,76,0.00,OVC,,0.02,258.0,WeatherDisplay:10.37,2013-04-20 13:26:00,
2013-04-20 09:31:00,36.7,29.5,30.08,WNW,288,6.9,9.2,75,0.00,OVC,,0.02,346.0,WeatherDisplay:10.37,2013-04-20 13:31:00,
2013-04-20 09:36:00,37.3,29.8,30.09,West,275,8.1,17.3,74,0.00,OVC,,0.02,204.0,WeatherDisplay:10.37,2013-04-20 13:36:00,
2013-04-20 09:41:00,36.9,29.7,30.09,West,268,9.5,12.0,75,0.00,OVC,,0.02,200.0,WeatherDisplay:10.37,2013-04-20 13:41:00,
2013-04-20 09:46:00,36.9,29.4,30.09,SSW,194,13.5,19.6,74,0.00,OVC,,0.02,689.0,WeatherDisplay:10.37,2013-04-20 13:46:00,
2013-04-20 09:51:00,37.1,29.2,30.09,NW,311,6.6,11.5,73,0.01,RA,,0.03,230.0,WeatherDisplay:10.37,2013-04-20 13:51:00,
2013-04-20 09:56:00,37.2,29.0,30.10,NW,315,12.6,17.3,72,0.01,RA,,0.03,243.0,WeatherDisplay:10.37,2013-04-20 13:56:00,
2013-04-20 10:01:00,37.1,28.9,30.10,WNW,293,11.8,16.1,72,0.01,-SN,,0.03,221.0,WeatherDisplay:10.37,2013-04-20 14:01:00,
2013-04-20 10:06:00,37.1,28.9,30.10,WSW,254,9.5,17.0,72,0.02,-SN,,0.04,165.0,WeatherDisplay:10.37,2013-04-20 14:06:00,
2013-04-20 10:11:00,37.6,29.7,30.11,West,265,5.0,11.5,73,0.02,-SN,,0.04,805.0,WeatherDisplay:10.37,2013-04-20 14:11:00,
2013-04-20 10:16:00,38.5,28.9,30.12,WNW,293,11.6,24.2,68,0.02,-SN,,0.04,308.0,WeatherDisplay:10.37,2013-04-20 14:16:00,
2013-04-20 10:21:00,37.9,27.5,30.12,West,265,9.0,15.0,66,0.02,-SN,,0.04,206.0,WeatherDisplay:10.37,2013-04-20 14:21:00,
2013-04-20 10:26:00,37.5,26.8,30.13,West,277,13.0,26.5,65,0.02,-SN,,0.04,274.0,WeatherDisplay:10.37,2013-04-20 14:26:00,
2013-04-20 10:31:00,37.2,26.1,30.12,West,279,15.3,24.2,64,0.02,-SN,,0.04,253.0,WeatherDisplay:10.37,2013-04-20 14:31:00,
2013-04-20 10:36:00,37.0,25.9,30.13,SW,223,13.7,21.9,64,0.02,-SN,,0.04,216.0,WeatherDisplay:10.37,2013-04-20 14:36:00,
2013-04-20 10:41:00,36.9,25.9,30.14,WNW,288,16.3,19.6,64,0.02,-SN,,0.04,193.0,WeatherDisplay:10.37,2013-04-20 14:41:00,
2013-04-20 10:46:00,36.9,26.6,30.14,West,273,9.3,13.8,66,0.02,-SN,,0.04,193.0,WeatherDisplay:10.37,2013-04-20 14:46:00,
2013-04-20 10:51:00,37.1,26.8,30.14,NW,311,9.3,19.6,66,0.02,-SN,,0.05,160.0,WeatherDisplay:10.37,2013-04-20 14:51:00,
2013-04-20 10:56:00,36.8,26.1,30.15,WNW,288,13.9,21.9,65,0.02,-SN,,0.05,207.0,WeatherDisplay:10.37,2013-04-20 14:56:00,
2013-04-20 11:01:00,36.9,26.6,30.15,West,271,9.9,13.0,66,0.02,-SN,,0.05,174.0,WeatherDisplay:10.37,2013-04-20 15:01:00,
2013-04-20 11:06:00,37.0,26.7,30.15,WNW,299,7.1,12.7,66,0.01,-SN,,0.05,160.0,WeatherDisplay:10.37,2013-04-20 15:06:00,
2013-04-20 11:11:00,37.0,25.9,30.16,WNW,286,11.3,16.1,64,0.01,-SN,,0.05,111.0,WeatherDisplay:10.37,2013-04-20 15:11:00,
2013-04-20 11:16:00,36.8,25.8,30.16,WNW,300,11.0,13.8,64,0.01,-SN,,0.05,151.0,WeatherDisplay:10.37,2013-04-20 15:16:00,
2013-04-20 11:21:00,36.8,25.4,30.17,NW,308,12.5,17.3,63,0.01,-SN,,0.05,167.0,WeatherDisplay:10.37,2013-04-20 15:21:00,
2013-04-20 11:26:00,36.8,26.1,30.17,WNW,290,11.0,13.8,65,0.01,-SN,,0.05,178.0,WeatherDisplay:10.37,2013-04-20 15:26:00,
2013-04-20 11:31:00,37.1,26.0,30.17,West,275,5.8,11.5,64,0.01,-SN,,0.05,287.0,WeatherDisplay:10.37,2013-04-20 15:31:00,
2013-04-20 11:36:00,37.4,25.9,30.17,NW,313,9.8,13.8,63,0.01,-SN,,0.05,253.0,WeatherDisplay:10.37,2013-04-20 15:36:00,
2013-04-20 11:41:00,37.5,26.0,30.18,WNW,299,8.3,17.0,63,0.01,-SN,,0.05,214.0,WeatherDisplay:10.37,2013-04-20 15:41:00,
2013-04-20 11:46:00,37.8,26.3,30.18,WNW,302,9.1,12.7,63,0.01,-SN,,0.05,241.0,WeatherDisplay:10.37,2013-04-20 15:46:00,
2013-04-20 11:51:00,37.8,25.9,30.18,West,280,10.4,13.8,62,0.00,-SN,,0.05,276.0,WeatherDisplay:10.37,2013-04-20 15:51:00,
2013-04-20 11:56:00,38.4,26.5,30.18,WNW,298,9.3,13.8,62,0.00,-SN,,0.05,343.0,WeatherDisplay:10.37,2013-04-20 15:56:00,
2013-04-20 12:01:00,38.1,25.8,30.19,WNW,289,10.8,17.3,61,0.00,OVC,,0.05,306.0,WeatherDisplay:10.37,2013-04-20 16:01:00,
2013-04-20 12:06:00,38.7,27.6,30.19,NW,305,10.7,15.0,64,0.00,OVC,,0.05,454.0,WeatherDisplay:10.37,2013-04-20 16:06:00,
2013-04-20 12:11:00,39.7,27.7,30.19,WNW,283,11.0,17.0,62,0.00,OVC,,0.05,492.0,WeatherDisplay:10.37,2013-04-20 16:11:00,
2013-04-20 12:16:00,39.2,26.9,30.19,West,274,11.6,11.6,61,0.00,OVC,,0.05,271.0,WeatherDisplay:10.37,2013-04-20 16:16:00,
2013-04-20 12:21:00,38.8,26.1,30.19,West,271,13.3,15.0,60,0.00,OVC,,0.05,274.0,WeatherDisplay:10.37,2013-04-20 16:21:00,
2013-04-20 12:26:00,38.5,26.2,30.20,WNW,295,8.1,15.0,61,0.00,OVC,,0.05,339.0,WeatherDisplay:10.37,2013-04-20 16:26:00,
2013-04-20 12:31:00,38.6,26.3,30.20,WSW,244,9.8,15.0,61,0.00,OVC,,0.05,367.0,WeatherDisplay:10.37,2013-04-20 16:31:00,
2013-04-20 12:36:00,39.5,27.5,30.20,WNW,290,7.6,11.5,62,0.00,OVC,,0.05,397.0,WeatherDisplay:10.37,2013-04-20 16:36:00,
2013-04-20 12:41:00,39.6,26.8,30.20,West,280,10.5,10.5,60,0.00,OVC,,0.05,295.0,WeatherDisplay:10.37,2013-04-20 16:41:00,
2013-04-20 12:46:00,39.2,26.1,30.20,WNW,285,9.9,13.8,59,0.00,OVC,,0.05,197.0,WeatherDisplay:10.37,2013-04-20 16:46:00,
2013-04-20 12:51:00,39.4,26.7,30.20,WNW,290,7.8,16.1,60,0.00,OVC,,0.05,478.0,WeatherDisplay:10.37,2013-04-20 16:51:00,
2013-04-20 12:56:00,39.7,27.3,30.20,NW,321,10.8,15.0,61,0.00,OVC,,0.05,288.0,WeatherDisplay:10.37,2013-04-20 16:56:00,
2013-04-20 13:01:00,39.5,26.8,30.21,NW,313,7.1,11.5,60,0.00,OVC,,0.05,255.0,WeatherDisplay:10.37,2013-04-20 17:01:00,
2013-04-20 13:06:00,39.5,27.5,30.20,NW,307,12.7,15.0,62,0.00,OVC,,0.05,276.0,WeatherDisplay:10.37,2013-04-20 17:06:00,
2013-04-20 13:11:00,40.4,27.6,30.21,WNW,291,6.5,11.5,60,0.00,OVC,,0.05,315.0,WeatherDisplay:10.37,2013-04-20 17:11:00,
2013-04-20 13:16:00,40.3,26.7,30.21,WNW,302,8.3,11.5,58,0.00,OVC,,0.05,329.0,WeatherDisplay:10.37,2013-04-20 17:16:00,
2013-04-20 13:21:00,39.8,26.6,30.21,West,275,11.0,13.8,59,0.00,OVC,,0.05,308.0,WeatherDisplay:10.37,2013-04-20 17:21:00,
2013-04-20 13:26:00,39.8,26.2,30.21,WNW,298,7.7,11.5,58,0.00,OVC,,0.05,501.0,WeatherDisplay:10.37,2013-04-20 17:26:00,
2013-04-20 13:31:00,41.7,27.6,30.21,NW,312,7.7,13.8,57,0.00,OVC,,0.05,420.0,WeatherDisplay:10.37,2013-04-20 17:31:00,
2013-04-20 13:36:00,41.6,27.1,30.22,WNW,283,11.8,18.4,56,0.00,OVC,,0.05,290.0,WeatherDisplay:10.37,2013-04-20 17:36:00,
2013-04-20 13:41:00,40.6,27.8,30.22,WNW,289,7.1,10.0,60,0.00,OVC,,0.05,236.0,WeatherDisplay:10.37,2013-04-20 17:41:00,
2013-04-20 13:46:00,40.0,26.4,30.22,West,281,11.1,14.0,58,0.00,OVC,,0.05,357.0,WeatherDisplay:10.37,2013-04-20 17:46:00,
2013-04-20 13:51:00,40.4,27.2,30.22,WSW,257,8.1,12.0,59,0.00,OVC,,0.05,1028.0,WeatherDisplay:10.37,2013-04-20 17:51:00,
2013-04-20 13:56:00,42.4,29.1,30.22,NW,315,10.3,12.7,59,0.00,OVC,,0.05,309.0,WeatherDisplay:10.37,2013-04-20 17:56:00,
2013-04-20 14:01:00,41.6,27.9,30.22,NW,306,10.7,13.8,58,0.00,BKN,,0.05,348.0,WeatherDisplay:10.37,2013-04-20 18:01:00,
2013-04-20 14:06:00,40.7,26.6,30.22,WNW,300,13.5,19.6,57,0.00,BKN,,0.05,355.0,WeatherDisplay:10.37,2013-04-20 18:06:00,
2013-04-20 14:11:00,41.0,27.3,30.22,WNW,295,6.8,12.7,58,0.00,BKN,,0.05,496.0,WeatherDisplay:10.37,2013-04-20 18:11:00,
2013-04-20 14:16:00,42.3,27.3,30.23,WSW,258,8.2,9.2,55,0.00,BKN,,0.05,371.0,WeatherDisplay:10.37,2013-04-20 18:16:00,
2013-04-20 14:21:00,41.3,26.8,30.23,WNW,288,9.7,15.0,56,0.00,BKN,,0.05,318.0,WeatherDisplay:10.37,2013-04-20 18:21:00,
2013-04-20 14:26:00,41.0,26.9,30.24,WNW,293,8.7,16.1,57,0.00,BKN,,0.05,396.0,WeatherDisplay:10.37,2013-04-20 18:26:00,
2013-04-20 14:31:00,42.0,27.9,30.23,WNW,296,9.3,15.0,57,0.00,BKN,,0.05,1104.0,WeatherDisplay:10.37,2013-04-20 18:31:00,
2013-04-20 14:36:00,42.3,26.8,30.24,West,274,9.0,11.5,54,0.00,BKN,,0.05,267.0,WeatherDisplay:10.37,2013-04-20 18:36:00,
2013-04-20 14:41:00,42.0,27.4,30.24,NW,318,6.2,12.7,56,0.00,BKN,,0.05,429.0,WeatherDisplay:10.37,2013-04-20 18:41:00,
2013-04-20 14:46:00,41.9,27.3,30.24,WNW,300,6.3,11.5,56,0.00,BKN,,0.05,283.0,WeatherDisplay:10.37,2013-04-20 18:46:00,
2013-04-20 14:51:00,41.8,28.1,30.24,WNW,297,6.4,6.9,58,0.00,BKN,,0.05,313.0,WeatherDisplay:10.37,2013-04-20 18:51:00,
2013-04-20 14:56:00,41.9,25.5,30.24,NW,315,7.9,13.8,52,0.00,BKN,,0.05,341.0,WeatherDisplay:10.37,2013-04-20 18:56:00,
2013-04-20 15:01:00,43.4,28.7,30.24,WNW,288,11.0,15.0,56,0.00,BKN,,0.05,1137.0,WeatherDisplay:10.37,2013-04-20 19:01:00,
2013-04-20 15:06:00,44.4,30.5,30.24,WNW,296,11.9,18.4,58,0.00,BKN,,0.05,1114.0,WeatherDisplay:10.37,2013-04-20 19:06:00,
2013-04-20 15:11:00,43.8,26.8,30.25,WNW,288,8.7,15.0,51,0.00,BKN,,0.05,378.0,WeatherDisplay:10.37,2013-04-20 19:11:00,
2013-04-20 15:16:00,42.6,26.2,30.25,WNW,296,10.7,13.8,52,0.00,BKN,,0.05,591.0,WeatherDisplay:10.37,2013-04-20 19:16:00,
2013-04-20 15:21:00,43.4,27.8,30.25,NW,324,11.9,12.7,54,0.00,BKN,,0.05,294.0,WeatherDisplay:10.37,2013-04-20 19:21:00,
2013-04-20 15:26:00,42.8,26.8,30.25,WNW,289,11.3,14.0,53,0.00,BKN,,0.05,387.0,WeatherDisplay:10.37,2013-04-20 19:26:00,
2013-04-20 15:31:00,43.6,27.6,30.25,West,275,10.4,19.6,53,0.00,BKN,,0.05,984.0,WeatherDisplay:10.37,2013-04-20 19:31:00,
2013-04-20 15:36:00,42.8,26.8,30.26,WSW,251,7.0,13.8,53,0.00,BKN,,0.05,257.0,WeatherDisplay:10.37,2013-04-20 19:36:00,
2013-04-20 15:41:00,42.5,27.5,30.26,NNW,344,10.0,16.1,55,0.00,BKN,,0.05,1021.0,WeatherDisplay:10.37,2013-04-20 19:41:00,
2013-04-20 15:46:00,42.7,27.2,30.26,WNW,293,7.9,16.1,54,0.00,BKN,,0.05,313.0,WeatherDisplay:10.37,2013-04-20 19:46:00,
2013-04-20 15:51:00,42.5,27.9,30.26,WNW,293,8.5,9.2,56,0.00,BKN,,0.05,350.0,WeatherDisplay:10.37,2013-04-20 19:51:00,
2013-04-20 15:56:00,42.8,27.7,30.26,WNW,293,8.9,11.5,55,0.00,BKN,,0.05,251.0,WeatherDisplay:10.37,2013-04-20 19:56:00,
2013-04-20 16:01:00,42.7,28.1,30.27,WNW,297,9.4,11.5,56,0.00,BKN,,0.05,445.0,WeatherDisplay:10.37,2013-04-20 20:01:00,
2013-04-20 16:06:00,42.2,27.6,30.27,NNW,330,5.1,10.0,56,0.00,BKN,,0.05,380.0,WeatherDisplay:10.37,2013-04-20 20:06:00,
2013-04-20 16:11:00,42.9,28.3,30.27,NW,311,7.7,11.5,56,0.00,BKN,,0.05,304.0,WeatherDisplay:10.37,2013-04-20 20:11:00,
2013-04-20 16:16:00,42.1,27.1,30.27,NW,321,10.1,11.5,55,0.00,BKN,,0.05,265.0,WeatherDisplay:10.37,2013-04-20 20:16:00,
2013-04-20 16:21:00,41.5,26.5,30.27,WNW,294,6.4,13.8,55,0.00,BKN,,0.05,243.0,WeatherDisplay:10.37,2013-04-20 20:21:00,
2013-04-20 16:26:00,42.5,29.2,30.28,NW,311,6.6,11.5,59,0.00,BKN,,0.05,288.0,WeatherDisplay:10.37,2013-04-20 20:26:00,
2013-04-20 16:31:00,43.2,27.7,30.28,NW,304,12.3,16.1,54,0.00,BKN,,0.05,288.0,WeatherDisplay:10.37,2013-04-20 20:31:00,
2013-04-20 16:36:00,43.1,28.5,30.28,WNW,286,10.7,17.3,56,0.00,BKN,,0.05,318.0,WeatherDisplay:10.37,2013-04-20 20:36:00,
2013-04-20 16:41:00,42.3,27.3,30.28,WNW,288,9.7,13.8,55,0.00,BKN,,0.05,397.0,WeatherDisplay:10.37,2013-04-20 20:41:00,
2013-04-20 16:46:00,42.8,29.0,30.28,NNW,331,10.2,15.0,58,0.00,BKN,,0.05,448.0,WeatherDisplay:10.37,2013-04-20 20:46:00,
2013-04-20 16:51:00,43.3,29.1,30.29,WNW,293,9.6,12.7,57,0.00,BKN,,0.05,171.0,WeatherDisplay:10.37,2013-04-20 20:51:00,
2013-04-20 16:56:00,42.2,27.2,30.29,NW,317,11.7,12.7,55,0.00,BKN,,0.05,204.0,WeatherDisplay:10.37,2013-04-20 20:56:00,
2013-04-20 17:01:00,42.2,27.2,30.29,NNW,344,9.3,17.3,55,0.00,BKN,,0.05,392.0,WeatherDisplay:10.37,2013-04-20 21:01:00,
2013-04-20 17:06:00,42.5,28.3,30.30,NW,324,9.6,13.8,57,0.00,BKN,,0.05,380.0,WeatherDisplay:10.37,2013-04-20 21:06:00,
2013-04-20 17:11:00,42.5,27.5,30.30,NW,313,8.9,12.7,55,0.00,BKN,,0.05,371.0,WeatherDisplay:10.37,2013-04-20 21:11:00,
2013-04-20 17:16:00,42.7,28.9,30.30,NNW,333,11.9,16.1,58,0.00,BKN,,0.05,330.0,WeatherDisplay:10.37,2013-04-20 21:16:00,
2013-04-20 17:21:00,42.8,27.3,30.30,NNW,333,6.8,11.5,54,0.00,BKN,,0.05,385.0,WeatherDisplay:10.37,2013-04-20 21:21:00,
2013-04-20 17:26:00,42.9,29.1,30.30,NNW,341,9.9,11.5,58,0.00,BKN,,0.05,376.0,WeatherDisplay:10.37,2013-04-20 21:26:00,
2013-04-20 17:31:00,43.3,27.8,30.31,NNW,329,8.8,12.7,54,0.00,BKN,,0.05,128.0,WeatherDisplay:10.37,2013-04-20 21:31:00,
2013-04-20 17:36:00,43.2,28.1,30.31,NNW,338,9.4,10.4,55,0.00,BKN,,0.05,279.0,WeatherDisplay:10.37,2013-04-20 21:36:00,
2013-04-20 17:41:00,43.2,27.7,30.31,WNW,289,7.6,12.7,54,0.00,BKN,,0.05,265.0,WeatherDisplay:10.37,2013-04-20 21:41:00,
2013-04-20 17:46:00,43.4,28.3,30.31,WNW,284,5.2,6.9,55,0.00,BKN,,0.05,229.0,WeatherDisplay:10.37,2013-04-20 21:46:00,
2013-04-20 17:51:00,43.6,28.0,30.31,WNW,297,8.5,13.8,54,0.00,BKN,,0.05,218.0,WeatherDisplay:10.37,2013-04-20 21:51:00,
2013-04-20 17:56:00,43.2,27.7,30.32,NW,304,10.9,17.3,54,0.00,BKN,,0.05,279.0,WeatherDisplay:10.37,2013-04-20 21:56:00,
2013-04-20 18:01:00,42.9,26.9,30.32,WNW,288,8.6,11.5,53,0.00,BKN,,0.05,209.0,WeatherDisplay:10.37,2013-04-20 22:01:00,
2013-04-20 18:06:00,42.6,26.6,30.32,WNW,286,8.1,11.5,53,0.00,BKN,,0.05,229.0,WeatherDisplay:10.37,2013-04-20 22:06:00,
2013-04-20 18:11:00,42.5,26.1,30.32,WNW,302,6.5,11.5,52,0.00,BKN,,0.05,274.0,WeatherDisplay:10.37,2013-04-20 22:11:00,
2013-04-20 18:16:00,42.7,27.2,30.32,NW,325,8.2,11.5,54,0.00,BKN,,0.05,290.0,WeatherDisplay:10.37,2013-04-20 22:16:00,
2013-04-20 18:21:00,42.6,26.2,30.32,NW,311,10.3,11.5,52,0.00,BKN,,0.05,306.0,WeatherDisplay:10.37,2013-04-20 22:21:00,
2013-04-20 18:26:00,42.5,26.6,30.33,WNW,296,7.7,11.5,53,0.00,BKN,,0.05,274.0,WeatherDisplay:10.37,2013-04-20 22:26:00,
2013-04-20 18:31:00,42.4,27.8,30.33,NNW,334,4.7,7.0,56,0.00,BKN,,0.05,260.0,WeatherDisplay:10.37,2013-04-20 22:31:00,
2013-04-20 18:36:00,42.4,26.9,30.33,NNW,338,6.5,10.4,54,0.00,BKN,,0.05,244.0,WeatherDisplay:10.37,2013-04-20 22:36:00,
2013-04-20 18:41:00,42.4,26.0,30.33,NNW,331,10.1,13.8,52,0.00,BKN,,0.05,290.0,WeatherDisplay:10.37,2013-04-20 22:41:00,
2013-04-20 18:46:00,42.2,27.2,30.33,NNW,331,9.0,11.5,55,0.00,BKN,,0.05,269.0,WeatherDisplay:10.37,2013-04-20 22:46:00,
2013-04-20 18:51:00,42.2,26.7,30.33,NW,319,8.9,18.4,54,0.00,BKN,,0.05,237.0,WeatherDisplay:10.37,2013-04-20 22:51:00,
2013-04-20 18:56:00,42.1,26.2,30.34,NW,313,7.9,9.2,53,0.00,BKN,,0.05,202.0,WeatherDisplay:10.37,2013-04-20 22:56:00,
2013-04-20 19:01:00,41.9,26.0,30.34,NW,320,7.9,11.5,53,0.00,SCT,,0.05,69.0,WeatherDisplay:10.37,2013-04-20 23:01:00,
2013-04-20 19:06:00,41.7,25.4,30.34,NNW,327,7.0,11.5,52,0.00,SCT,,0.05,56.0,WeatherDisplay:10.37,2013-04-20 23:06:00,
2013-04-20 19:11:00,41.4,25.1,30.34,NW,320,7.6,7.6,52,0.00,SCT,,0.05,135.0,WeatherDisplay:10.37,2013-04-20 23:11:00,
2013-04-20 19:16:00,41.2,24.4,30.34,NW,311,8.3,11.5,51,0.00,SCT,,0.05,142.0,WeatherDisplay:10.37,2013-04-20 23:16:00,
2013-04-20 19:21:00,41.0,25.2,30.34,NW,324,4.7,6.9,53,0.00,SCT,,0.05,109.0,WeatherDisplay:10.37,2013-04-20 23:21:00,
2013-04-20 19:26:00,40.6,26.1,30.34,NNW,343,6.2,9.2,56,0.00,SCT,,0.05,37.0,WeatherDisplay:10.37,2013-04-20 23:26:00,
2013-04-20 19:31:00,40.2,26.2,30.35,NNW,331,5.9,5.9,57,0.00,SCT,,0.05,32.0,WeatherDisplay:10.37,2013-04-20 23:31:00,
2013-04-20 19:36:00,39.8,25.8,30.35,NNW,327,6.1,10.0,57,0.00,SCT,,0.05,30.0,WeatherDisplay:10.37,2013-04-20 23:36:00,
2013-04-20 19:41:00,39.6,26.4,30.35,NNW,346,8.2,10.4,59,0.00,SCT,,0.05,51.0,WeatherDisplay:10.37,2013-04-20 23:41:00,
2013-04-20 19:46:00,39.4,25.4,30.35,NNW,337,6.1,8.1,57,0.00,SCT,,0.05,39.0,WeatherDisplay:10.37,2013-04-20 23:46:00,
2013-04-20 19:51:00,39.4,25.8,30.35,NW,319,6.7,10.4,58,0.00,SCT,,0.05,35.0,WeatherDisplay:10.37,2013-04-20 23:51:00,
2013-04-20 19:56:00,39.3,26.2,30.36,NW,323,7.4,10.4,59,0.00,SCT,,0.05,25.0,WeatherDisplay:10.37,2013-04-20 23:56:00,
2013-04-20 20:01:00,39.2,25.6,30.36,North,351,5.0,6.9,58,0.00,SCT,,0.05,12.0,WeatherDisplay:10.37,2013-04-21 00:01:00,
2013-04-20 20:06:00,38.9,25.4,30.36,NNW,347,3.2,8.0,58,0.00,SCT,,0.05,7.0,WeatherDisplay:10.37,2013-04-21 00:06:00,
2013-04-20 20:11:00,38.7,25.2,30.37,NNW,343,6.3,10.4,58,0.00,SCT,,0.05,5.0,WeatherDisplay:10.37,2013-04-21 00:11:00,
2013-04-20 20:16:00,38.4,24.9,30.37,NNW,332,3.5,5.8,58,0.00,SCT,,0.05,0.0,WeatherDisplay:10.37,2013-04-21 00:16:00,
2013-04-20 20:21:00,38.2,25.5,30.37,NW,313,4.2,5.8,60,0.00,SCT,,0.05,0.0,WeatherDisplay:10.37,2013-04-21 00:21:00,
2013-04-20 20:26:00,38.1,25.4,30.37,NNW,346,2.0,4.6,60,0.00,SCT,,0.05,0.0,WeatherDisplay:10.37,2013-04-21 00:26:00,
2013-04-20 20:31:00,38.0,25.7,30.38,NNW,339,3.5,5.8,61,0.00,SCT,,0.05,0.0,WeatherDisplay:10.37,2013-04-21 00:31:00,
2013-04-20 20:36:00,37.8,25.5,30.38,NNW,332,2.1,3.5,61,0.00,SCT,,0.05,0.0,WeatherDisplay:10.37,2013-04-21 00:36:00,
2013-04-20 20:41:00,37.5,25.7,30.38,NNW,335,3.2,4.6,62,0.00,SCT,,0.05,0.0,WeatherDisplay:10.37,2013-04-21 00:41:00,
2013-04-20 20:46:00,37.3,25.5,30.38,NNW,345,1.4,3.5,62,0.00,SCT,,0.05,0.0,WeatherDisplay:10.37,2013-04-21 00:46:00,
2013-04-20 20:51:00,37.1,25.7,30.38,NNW,327,1.8,3.5,63,0.00,SCT,,0.05,0.0,WeatherDisplay:10.37,2013-04-21 00:51:00,
2013-04-20 20:56:00,37.0,25.6,30.39,NNW,327,1.8,2.3,63,0.00,SCT,,0.05,0.0,WeatherDisplay:10.37,2013-04-21 00:56:00,
2013-04-20 21:01:00,37.0,25.9,30.39,NNW,327,1.3,2.3,64,0.00,SCT,,0.05,0.0,WeatherDisplay:10.37,2013-04-21 01:01:00,
2013-04-20 21:06:00,37.0,25.6,30.39,NW,322,1.0,2.3,63,0.00,SCT,,0.05,0.0,WeatherDisplay:10.37,2013-04-21 01:06:00,
2013-04-20 21:11:00,37.0,25.6,30.39,NNW,332,2.0,3.0,63,0.00,SCT,,0.05,0.0,WeatherDisplay:10.37,2013-04-21 01:11:00,
2013-04-20 21:16:00,37.1,25.7,30.40,NW,319,0.6,3.5,63,0.00,SCT,,0.05,0.0,WeatherDisplay:10.37,2013-04-21 01:16:00,
2013-04-20 21:21:00,37.2,26.1,30.40,NW,319,1.6,2.3,64,0.00,SCT,,0.05,0.0,WeatherDisplay:10.37,2013-04-21 01:21:00,
2013-04-20 21:26:00,37.3,26.2,30.40,NNW,327,2.2,3.5,64,0.00,SCT,,0.05,0.0,WeatherDisplay:10.37,2013-04-21 01:26:00,
2013-04-20 21:31:00,37.4,25.9,30.41,NW,315,0.9,1.1,63,0.00,SCT,,0.05,0.0,WeatherDisplay:10.37,2013-04-21 01:31:00,
2013-04-20 21:36:00,37.3,26.2,30.41,NW,315,1.7,2.3,64,0.00,SCT,,0.05,0.0,WeatherDisplay:10.37,2013-04-21 01:36:00,
2013-04-20 21:41:00,37.1,25.7,30.41,NNW,328,3.1,4.0,63,0.00,SCT,,0.05,0.0,WeatherDisplay:10.37,2013-04-21 01:41:00,
2013-04-20 21:46:00,36.9,25.9,30.41,NNW,332,1.8,3.5,64,0.00,SCT,,0.05,0.0,WeatherDisplay:10.37,2013-04-21 01:46:00,
2013-04-20 21:51:00,36.8,25.8,30.41,NNW,331,0.3,1.1,64,0.00,SCT,,0.05,0.0,WeatherDisplay:10.37,2013-04-21 01:51:00,
2013-04-20 21:56:00,36.6,25.6,30.41,NW,313,2.1,3.5,64,0.00,SCT,,0.05,0.0,WeatherDisplay:10.37,2013-04-21 01:56:00,
2013-04-20 22:01:00,36.6,25.6,30.42,NW,316,1.7,3.5,64,0.00,BKN,,0.05,0.0,WeatherDisplay:10.37,2013-04-21 02:01:00,
2013-04-20 22:06:00,36.6,25.6,30.42,NW,316,1.1,2.3,64,0.00,BKN,,0.05,0.0,WeatherDisplay:10.37,2013-04-21 02:06:00,
2013-04-20 22:11:00,36.5,25.8,30.42,NW,316,1.4,2.0,65,0.00,BKN,,0.05,0.0,WeatherDisplay:10.37,2013-04-21 02:11:00,
2013-04-20 22:16:00,36.3,25.7,30.42,NW,315,1.6,2.3,65,0.00,BKN,,0.05,0.0,WeatherDisplay:10.37,2013-04-21 02:16:00,
2013-04-20 22:21:00,36.1,25.8,30.42,North,350,1.1,1.1,66,0.00,BKN,,0.05,0.0,WeatherDisplay:10.37,2013-04-21 02:21:00,
2013-04-20 22:26:00,36.0,26.1,30.42,North,349,3.4,5.8,67,0.00,BKN,,0.05,0.0,WeatherDisplay:10.37,2013-04-21 02:26:00,
2013-04-20 22:31:00,36.0,25.7,30.43,NNE,23,2.3,3.5,66,0.00,BKN,,0.05,0.0,WeatherDisplay:10.37,2013-04-21 02:31:00,
2013-04-20 22:36:00,35.9,25.6,30.43,NE,37,2.2,3.5,66,0.00,BKN,,0.05,0.0,WeatherDisplay:10.37,2013-04-21 02:36:00,
2013-04-20 22:41:00,35.8,25.5,30.43,North,5,3.6,4.0,66,0.00,BKN,,0.05,0.0,WeatherDisplay:10.37,2013-04-21 02:41:00,
2013-04-20 22:46:00,35.7,25.4,30.43,NNE,23,2.3,3.5,66,0.00,BKN,,0.05,0.0,WeatherDisplay:10.37,2013-04-21 02:46:00,
2013-04-20 22:51:00,35.7,25.8,30.44,NNE,29,1.9,3.5,67,0.00,BKN,,0.05,0.0,WeatherDisplay:10.37,2013-04-21 02:51:00,
2013-04-20 22:56:00,35.6,25.7,30.44,NE,36,0.6,2.3,67,0.00,BKN,,0.05,0.0,WeatherDisplay:10.37,2013-04-21 02:56:00,
2013-04-20 23:01:00,35.5,26.0,30.44,NE,46,0.9,2.3,68,0.00,BKN,,0.05,0.0,WeatherDisplay:10.37,2013-04-21 03:01:00,
2013-04-20 23:06:00,35.5,26.3,30.44,NE,46,0.7,0.0,69,0.00,BKN,,0.05,0.0,WeatherDisplay:10.37,2013-04-21 03:06:00,
2013-04-20 23:11:00,35.5,26.0,30.44,NE,46,0.2,1.1,68,0.00,BKN,,0.05,0.0,WeatherDisplay:10.37,2013-04-21 03:11:00,
2013-04-20 23:16:00,35.6,26.4,30.45,North,5,1.9,2.3,69,0.00,BKN,,0.05,0.0,WeatherDisplay:10.37,2013-04-21 03:16:00,
2013-04-20 23:21:00,35.7,26.2,30.45,NE,34,2.3,3.5,68,0.00,BKN,,0.05,0.0,WeatherDisplay:10.37,2013-04-21 03:21:00,
2013-04-20 23:26:00,35.7,25.8,30.45,North,9,1.1,3.5,67,0.00,BKN,,0.05,0.0,WeatherDisplay:10.37,2013-04-21 03:26:00,
2013-04-20 23:31:00,35.8,25.9,30.45,NE,38,2.0,3.5,67,0.00,BKN,,0.05,0.0,WeatherDisplay:10.37,2013-04-21 03:31:00,
2013-04-20 23:36:00,35.9,25.6,30.45,NNE,30,0.3,3.5,66,0.00,BKN,,0.05,0.0,WeatherDisplay:10.37,2013-04-21 03:36:00,
2013-04-20 23:41:00,35.9,26.0,30.45,NE,34,0.4,1.1,67,0.00,BKN,,0.05,0.0,WeatherDisplay:10.37,2013-04-21 03:41:00,
2013-04-20 23:46:00,36.0,25.4,30.45,NE,45,1.7,3.5,65,0.00,BKN,,0.05,0.0,WeatherDisplay:10.37,2013-04-21 03:46:00,
2013-04-20 23:51:00,36.1,25.5,30.45,NE,51,1.5,2.0,65,0.00,BKN,,0.05,0.0,WeatherDisplay:10.37,2013-04-21 03:51:00,
2013-04-20 23:56:00,36.2,25.2,30.45,ENE,61,1.0,2.3,64,0.00,BKN,,0.05,0.0,WeatherDisplay:10.37,2013-04-21 03:56:00,